Location: Unspecified
(50.7693°N, 0.0000°E)
Time: 21:55:12
(UTC+00:00)

Vanguard 1 - Visible Passes

Search period start: 28 September 2020 00:00
Search period end: 08 October 2020 00:00
Orbit: 650 x 3832 km, 34.2° (Epoch: 28 September)

Date Brightness Start Highest point End Pass type
(mag) Time Alt. Az. Time Alt. Az. Time Alt. Az.
02 Oct 12.1 19:32:52 10° S 19:35:52 12° SSE 19:36:39 12° SSE visible
03 Oct 12.0 19:52:06 10° SSW 19:56:30 15° S 19:56:32 15° S visible
04 Oct 12.0 20:12:00 10° SW 20:16:24 17° S 20:16:24 17° S visible
05 Oct 12.3 18:12:22 10° SSW 18:17:47 15° SSE 18:22:01 10° SE visible
05 Oct 12.0 20:32:16 10° SW 20:36:14 18° SSW 20:36:14 18° SSW visible
06 Oct 12.1 18:31:35 10° SSW 18:38:29 18° S 18:43:21 10° SE visible
06 Oct 12.1 20:52:48 10° SW 20:56:03 17° SSW 20:56:03 17° SSW visible
07 Oct 11.9 18:51:23 10° SW 18:59:09 21° S 19:03:08 15° SE visible
07 Oct 12.3 21:13:32 10° SW 21:15:51 15° SW 21:15:51 15° SW visible
